Content
SEND FEEDBACK

Daily
Averages
Monthly
Summary
United States of America

CAMP QUEZON, GUAM


Home > North America > United States > Guam
Elevation: 269 feet     Latitude: 13 28N     Longitude: 144 48E

WEATHER
 
SELECT A DAY
Number of Records: 206,799;   Date Range: 1/1/95 - 4/15/14
 
SHARE

PRINT THIS DATA

[ ← Previous Day ]
WEATHER ALMANAC - JANUARY 4, 2013
[ Next Day → ]
[ °C ]   °F
Weather ElementAverageHighLow
Temperature81.4 °F84.9 °F (11:54 am)77 °F (5:54 am)
Dewpoint72 °F73.9 °F (4:54 pm)69.1 °F (4:54 am)
Humidity73.3 %82 % (5:54 am)65 % (11:54 am)
Barometer29.79 in29.86 in (8:54 am)29.73 in (2:54 pm)
Wind Speed10.5 mph17.3 mph (11:54 am)
Wind Gust23 mph (12:54 pm)
Weather ElementAverage
Visibility10 mi
Wind DirectionENE (81.1 °)

Weather ElementTotal
Precipitation---
Cooling Degree Days16 (Base 65)
Growing Degree Days31 (Base 50)
Averaged from 28 records on January 4, 2013
WEATHER CONDITIONS BREAKOUT
WIND DIRECTION BREAKOUT
WEATHER BY HOUR - JANUARY 4, 2013
[ °C ]   °F
Local TimeTemperatureDewpointHumidityBarometerVisibilityWind DirectionWind SpeedGust SpeedPrecipitationEventsConditions
1:54 AM79.0 °F71.1 °F77 %29.81 in10.0 miEast (80°)10.4 mphClear
2:54 AM79.0 °F71.1 °F77 %29.80 in10.0 miEast (80°)8.1 mphClear
3:54 AM79.0 °F71.1 °F77 %29.80 in10.0 miEast (80°)9.2 mphClear
4:54 AM78.1 °F69.1 °F74 %29.81 in10.0 miEast (80°)9.2 mphClear
5:54 AM77.0 °F71.1 °F82 %29.81 in10.0 miEast (80°)6.9 mphClear
6:54 AM77.0 °F71.1 °F82 %29.83 in10.0 miEast (80°)5.8 mphClear
7:54 AM79.0 °F72.0 °F79 %29.85 in10.0 miEast (80°)6.9 mphClear
8:54 AM82.0 °F71.1 °F69 %29.86 in10.0 miEast (90°)10.4 mphClear
9:54 AM82.9 °F71.1 °F67 %29.85 in10.0 miEast (80°)12.7 mphClear
10:54 AM84.0 °F72.0 °F67 %29.83 in10.0 miEast (90°)12.7 mphPartly Cloudy
11:54 AM84.9 °F72.0 °F65 %29.80 in10.0 miEast (90°)17.3 mph20.7 mphPartly Cloudy
12:54 PM84.9 °F72.0 °F65 %29.78 in10.0 miEast (80°)12.7 mph23.0 mphMostly Cloudy
1:07 PM84.2 °F73.4 °F70 %29.79 in10.0 miEast (90°)12.7 mphMostly Cloudy
1:19 PM84.2 °F71.6 °F66 %29.78 in10.0 miEast (80°)16.1 mph23.0 mphScattered Clouds
1:54 PM84.0 °F72.0 °F67 %29.75 in10.0 miEast (80°)16.1 mph19.6 mphScattered Clouds
2:54 PM84.0 °F72.0 °F67 %29.73 in10.0 miEast (80°)15.0 mphPartly Cloudy
3:43 PM84.2 °F73.4 °F70 %29.75 in10.0 miEast (80°)11.5 mphMostly Cloudy
3:50 PM84.2 °F73.4 °F70 %29.75 in10.0 miEast (90°)12.7 mph19.6 mphScattered Clouds
3:54 PM84.0 °F73.0 °F69 %29.73 in10.0 miENE (60°)15.0 mph18.4 mphScattered Clouds
4:54 PM82.9 °F73.9 °F74 %29.73 in10.0 miEast (80°)10.4 mphScattered Clouds
5:54 PM82.0 °F73.0 °F74 %29.74 in10.0 miEast (80°)8.1 mphMostly Cloudy
6:10 PM80.6 °F73.4 °F79 %29.77 in10.0 miEast (80°)8.1 mphScattered Clouds
6:54 PM80.1 °F73.0 °F79 %29.76 in10.0 miEast (80°)8.1 mphPartly Cloudy
7:54 PM80.1 °F71.1 °F74 %29.78 in10.0 miEast (80°)6.9 mphPartly Cloudy
8:54 PM80.1 °F72.0 °F76 %29.79 in10.0 miEast (80°)6.9 mphPartly Cloudy
9:54 PM79.0 °F72.0 °F79 %29.79 in10.0 miEast (80°)5.8 mphPartly Cloudy
10:54 PM79.0 °F72.0 °F79 %29.80 in10.0 miEast (80°)9.2 mphPartly Cloudy
11:54 PM79.0 °F72.0 °F79 %29.80 in10.0 miEast (80°)8.1 mphPartly Cloudy
Hourly data recorded from PGUM, located 0.94 miles away from Camp Quezon, Guam







STORIES FROM OUR PARTNERS